カタログに戻る

DELTA 1 DEB

運用中LEO
NORAD 10663·DEBRIS·🇺🇸 United States

打ち上げ Jul 29, 1976 から Vandenberg Space Force Base

Loading…

次のパス (今後24時間)

TLE

最新Source: Space-Track

元期: Sep 14, 2026, 08:54 UTC

1 10663U 76077Z   26257.37101581  .00005146  00000-0  29263-2 0  9991
2 10663 100.6077 296.5611 0102644 313.9209  45.3516 14.07782721443490

AllMySatでDELTA 1 DEBをリアルタイム追跡

Download on the App Store